Location: *
(37.5724°S, 58.0067°E)
Time: 07:20:06
(UTC+00:00)

ISS - Visible Passes

Search period start: 26 November 2020 00:00
Search period end: 06 December 2020 00:00
Orbit: 418 x 421 km, 51.6° (Epoch: 26 November)

Date Brightness Start Highest point End Pass type
(mag) Time Alt. Az. Time Alt. Az. Time Alt. Az.
26 Nov -1.4 22:30:15 15° NE 22:30:15 15° NE 22:32:12 10° E visible
27 Nov -3.2 00:03:19 10° WNW 00:06:40 52° SW 00:10:02 10° SE visible
27 Nov -3.8 23:17:35 30° NW 23:19:09 88° NNE 23:22:37 10° SE visible
28 Nov -3.1 22:31:53 47° NE 22:31:53 47° NE 22:35:02 10° ESE visible
29 Nov -1.8 00:05:56 10° W 00:08:41 22° SSW 00:11:26 10° SSE visible
29 Nov -1.2 21:46:06 17° E 21:46:06 17° E 21:47:14 10° ESE visible
29 Nov -2.4 23:19:03 18° W 23:21:02 32° SSW 23:24:10 10° SSE visible
30 Nov -3.3 22:33:12 50° SW 22:33:25 51° SW 22:36:49 10° SE visible
01 Dec -2.0 21:47:18 33° SE 21:47:18 33° SE 21:49:20 10° SE visible
01 Dec -1.2 23:20:53 10° WSW 23:23:07 16° SSW 23:25:20 10° SSE visible
02 Dec -0.7 21:01:20 13° ESE 21:01:20 13° ESE 21:01:43 10° ESE visible
02 Dec -1.7 22:34:16 19° SW 22:35:22 22° SSW 22:38:07 10° SSE visible
03 Dec -1.9 21:48:15 30° SSW 21:48:15 30° SSW 21:50:49 10° SSE visible
04 Dec -1.1 21:02:09 20° SE 21:02:09 20° SE 21:03:25 10° SE visible
04 Dec -0.8 22:35:59 10° SW 22:37:29 12° SSW 22:39:01 10° S visible
05 Dec -1.1 21:48:56 15° SW 21:49:40 16° SSW 21:51:54 10° SSE visible
